Tracking 19562 objects as of 23-Mar-2019
HD Live streaming from Space Station
objects crossing your sky now

SKYNET 1

Track SKYNET 1 now!
SKYNET 1 is classified as:


NORAD ID: 4250
Int'l Code: 1969-101A
Perigee: 35,710.7 km
Apogee: 35,878.7 km
Inclination: 6.1 °
Period: 1,436.1 minutes
Semi major axis: 42165 km
RCS: 1.2928 m2 (large)
Launch date: November 22, 1969
Source: United Kingdom (UK)
Launch site: AIR FORCE EASTERN TEST RANGE (AFETR)
aabbcc
Your satellite tracking list
Your tracking list is empty




NASA's NSSDC Master Catalog

Two Line Element Set (TLE):
1  4250U 69101A   19081.63875175 -.00000126  00000-0  00000+0 0  9998
2  4250   6.0941 298.9355 0019923 257.7502 108.6783  1.00268312107998
Source of the keplerian elements: AFSPC